Terrell, TX

5:14 AM CDT on August 17, 2017 (GMT -0500)
Terrell Municipal

Weather History for KTRL - March, 2013

Change the Weather History Date:

Friday, March 15, 2013

  Actual Average (KGVT) Record (KGVT)
Temperature  
Mean Temperature 66 °F -  
Max Temperature 80 °F 63 °F 78 °F (2007)
Min Temperature 52 °F 48 °F 32 °F (2011)
Cooling Degree Days 1    
Growing Degree Days 16 (Base 50)    
Moisture  
Dew Point 47 °F    
Average Humidity 53    
Maximum Humidity 86    
Minimum Humidity 29    
Precipitation  
Precipitation 0.00 in - - ()
Sea Level Pressure  
Sea Level Pressure 30.06 in    
Wind  
Wind Speed 10 mph (South)    
Max Wind Speed 21 mph    
Max Gust Speed 30 mph    
Visibility 10 miles    
Events      
Averages and records for this station are not official NWS values.
T = Trace of Precipitation, MM = Missing Value Source: NWS Daily Summary

Daily Weather History Graph

Daily Weather History Graph

Search for Another Location

Airport or City:

Trip Planner

Search our weather history database for the weather conditions in past years. The results will help you decide how hot, cold, wet, or windy it might be!

Date:

Astronomy

Mar. 15, 2013 Rise Set
Actual Time 7:34 AM CDT 7:33 PM CDT
Civil Twilight 7:10 AM CDT 7:57 PM CDT
Nautical Twilight 6:41 AM CDT 8:26 PM CDT
Astronomical Twilight 6:13 AM CDT 8:55 PM CDT
Moon 9:40 AM CDT (3/15) 11:32 PM CDT (3/15)
Length of Visible Light 12h 47m
Length of Day
11h 58m
Waxing Crescent, 15% of the Moon is Illuminated
Mar 15
Waxing Crescent
Mar 19
First Quarter
Mar 27
Full
Apr 2
Last Quarter
Apr 10
New

Hourly Weather History & Observations

Time (CDT) Temp. Dew Point Humidity Pressure Visibility Wind Dir Wind Speed Gust Speed Precip Events Conditions
12:53 AM 57.0 °F 45.0 °F 64% 30.19 in 10.0 mi South 6.9 mph - N/A   Clear
1:53 AM 57.0 °F 45.0 °F 64% 30.18 in 10.0 mi South 8.1 mph - N/A   Clear
2:53 AM 55.9 °F 46.0 °F 69% 30.18 in 10.0 mi South 6.9 mph - N/A   Clear
3:53 AM 54.0 °F 46.0 °F 75% 30.17 in 10.0 mi South 5.8 mph - N/A   Clear
4:53 AM 55.0 °F 46.9 °F 74% 30.15 in 10.0 mi South 9.2 mph - N/A   Clear
5:53 AM 55.9 °F 48.9 °F 77% 30.15 in 10.0 mi South 9.2 mph - N/A   Clear
7:53 AM 52.0 °F 48.0 °F 86% 30.16 in 9.0 mi South 4.6 mph - N/A   Clear
8:53 AM 55.9 °F 48.9 °F 77% 30.16 in 10.0 mi South 10.4 mph - N/A   Clear
9:53 AM 63.0 °F 52.0 °F 67% 30.15 in 10.0 mi SSW 16.1 mph 20.7 mph N/A   Clear
10:53 AM 66.9 °F 52.0 °F 59% 30.14 in 10.0 mi SSW 16.1 mph 25.3 mph N/A   Clear
11:53 AM 72.0 °F 52.0 °F 49% 30.12 in 10.0 mi SSW 15.0 mph 23.0 mph N/A   Clear
12:53 PM 73.9 °F 51.1 °F 45% 30.10 in 10.0 mi SSW 16.1 mph - N/A   Clear
1:53 PM 75.9 °F 48.0 °F 37% 30.06 in 10.0 mi SSW 19.6 mph 28.8 mph N/A   Clear
2:53 PM 80.1 °F 48.9 °F 34% 30.03 in 10.0 mi SSW 13.8 mph 21.9 mph N/A   Clear
3:53 PM 79.0 °F 45.0 °F 30% 29.99 in 10.0 mi SSW 16.1 mph 26.5 mph N/A   Clear
4:53 PM 78.1 °F 44.1 °F 30% 29.97 in 10.0 mi South 20.7 mph 29.9 mph N/A   Clear
5:53 PM 78.1 °F 43.0 °F 29% 29.96 in 10.0 mi South 15.0 mph 26.5 mph N/A   Clear
6:53 PM 75.0 °F 41.0 °F 29% 29.95 in 10.0 mi SSW 11.5 mph 26.5 mph N/A   Clear
7:53 PM 72.0 °F 41.0 °F 33% 29.94 in 10.0 mi South 10.4 mph - N/A   Clear
8:53 PM 66.0 °F 42.1 °F 42% 29.94 in 10.0 mi South 8.1 mph - N/A   Clear
9:53 PM 64.9 °F 43.0 °F 45% 29.94 in 10.0 mi South 9.2 mph - N/A   Clear
10:53 PM 64.9 °F 44.1 °F 47% 29.93 in 10.0 mi South 10.4 mph - N/A   Clear
11:53 PM 66.0 °F 48.0 °F 52% 29.91 in 10.0 mi South 15.0 mph 23.0 mph N/A   Clear